Location: Unspecified
(37.6100°N, 2.7800°W)
Time: 23:52:05
(UTC+00:00)

Envisat - Visible Passes

Search period start: 20 October 2018 00:00
Search period end: 30 October 2018 00:00
Orbit: 764 x 766 km, 98.2° (Epoch: 20 October)

Date Brightness Start Highest point End Pass type
(mag) Time Alt. Az. Time Alt. Az. Time Alt. Az.
20 Oct 4.0 18:15:55 10° ESE 18:20:01 26° ENE 18:24:10 10° NNE visible
20 Oct 4.5 19:54:17 10° SSW 19:58:51 34° W 20:03:28 10° NNW visible
21 Oct 3.0 19:16:57 10° S 19:22:01 80° WSW 19:27:08 10° NNW visible
22 Oct 3.2 18:40:36 10° SE 18:45:24 45° ENE 18:50:13 10° N visible
22 Oct 5.4 20:21:03 10° SW 20:24:36 19° W 20:28:09 10° NW visible
23 Oct 4.2 18:05:17 10° ESE 18:08:57 20° ENE 18:12:38 10° NNE visible
23 Oct 4.0 19:42:49 10° S 19:47:38 43° W 19:52:28 10° NNW visible
24 Oct 2.8 19:05:47 10° SSE 19:10:51 81° ENE 19:15:58 10° N visible
25 Oct 3.5 18:29:42 10° SE 18:34:17 35° ENE 18:38:52 10° N visible
25 Oct 5.1 20:09:15 10° SSW 20:13:19 24° W 20:17:25 10° NW visible
26 Oct 4.5 17:54:50 10° ESE 17:57:54 16° ENE 18:00:58 10° NNE visible
26 Oct 3.6 19:31:27 10° S 19:36:25 56° W 19:41:25 10° NNW visible
27 Oct 2.9 18:54:42 10° SSE 18:59:42 63° ENE 19:04:44 10° N visible
27 Oct 5.8 20:36:45 10° WSW 20:39:06 13° W 20:41:29 10° WNW visible
28 Oct 3.8 18:18:54 10° SE 18:23:11 28° ENE 18:27:27 10° N visible
28 Oct 4.7 19:57:37 10° SSW 20:02:04 31° W 20:06:33 10° NW visible
29 Oct 4.7 17:44:39 10° E 17:46:51 13° ENE 17:49:03 10° NE visible
29 Oct 3.1 19:20:10 10° S 19:25:13 72° WSW 19:30:18 10° NNW visible
